Date String (YYYY-MM-DD hh:mm:ss) UTC,Instrument flags,Ambient pressure (hPa),Sample flow (lpm),Bypass flow (lpm),Sample temperature (°C),Ambient temperature (°C),ASC tube jacket temperature (°C),LED temperature (°C),Box temperature (°C),Sample RH (%),Span deviation,Mass concentration (μg/m³),Mass concentration (μg/m³),Mass concentration (μg/m³)
DateTimeUTC,F1_M11,P_M11,Q1_M11,Q2_M11,T1_M11,T2_M11,T3_M11,T4_M11,T5_M11,U1_M11,ZSPAN_M11,X2_M11,X0_M11,X1_M11
2023-04-23 01:00:00,,0832.0,4.99,0.00,21.9,20.2,00.0,30.4,23.4,15.6,0000.2,0009.14,0011.30,0008.80
2023-04-23 01:01:00,,0832.3,5.00,0.00,21.9,20.2,00.0,30.4,23.4,15.7,0000.1,0009.11,0011.27,0008.78
2023-04-23 01:02:00,,0832.2,5.00,0.00,21.9,20.2,00.0,30.4,23.4,16.0,0000.0,0009.09,0011.30,0008.75
2023-04-23 01:03:00,,0832.2,5.00,0.00,21.9,20.3,00.0,30.4,23.4,16.2,-000.1,0009.09,0011.35,0008.73
2023-04-23 01:04:00,,0832.3,5.01,0.00,21.9,20.3,00.0,30.3,23.4,16.3,0000.2,0009.07,0011.40,0008.71
2023-04-23 01:05:00,,0832.3,5.00,0.00,21.9,20.3,00.0,30.3,23.4,16.2,0000.3,0009.07,0011.32,0008.69
2023-04-23 01:06:00,,0832.0,5.00,0.00,21.9,20.3,00.0,30.3,23.4,16.1,0000.1,0009.10,0011.43,0008.70
2023-04-23 01:07:00,,0832.0,5.00,0.00,21.9,20.3,00.0,30.3,23.4,16.5,0000.2,0009.11,0011.53,0008.69
2023-04-23 01:08:00,,0831.9,5.00,0.00,21.9,20.3,00.0,30.3,23.4,16.6,0000.2,0009.13,0011.55,0008.71
2023-04-23 01:09:00,,0832.0,5.00,0.00,21.8,20.2,00.0,30.3,23.4,16.7,0000.1,0009.13,0011.54,0008.74
2023-04-23 01:10:00,,0831.9,5.00,0.00,21.8,20.2,00.0,30.3,23.4,16.8,0000.2,0009.15,0012.15,0008.77
2023-04-23 01:11:00,,0832.2,5.00,0.00,21.8,20.2,00.0,30.3,23.3,16.8,0000.4,0009.20,0012.18,0008.82
2023-04-23 01:12:00,,0832.2,5.00,0.00,21.8,20.2,00.0,30.3,23.3,16.8,0000.5,0009.30,0012.31,0008.90
2023-04-23 01:13:00,,0831.9,5.01,0.00,21.9,20.8,00.0,30.2,23.6,16.7,0000.5,0009.40,0012.43,0008.98
2023-04-23 01:14:00,,0831.8,4.99,0.00,22.0,22.0,00.0,30.2,24.0,16.6,0000.6,0009.49,0012.53,0009.06
2023-04-23 01:15:00,,0831.9,4.99,0.00,22.2,22.9,00.0,30.2,24.3,16.4,0000.5,0009.57,0012.59,0009.12
2023-04-23 01:16:00,,0831.8,5.01,0.00,22.2,22.8,00.0,30.3,24.2,16.4,0000.3,0009.64,0012.69,0009.18
2023-04-23 01:17:00,,0831.8,4.99,0.00,22.2,22.5,00.0,30.4,24.0,16.5,0000.6,0009.71,0012.76,0009.22
2023-04-23 01:18:00,,0831.8,5.00,0.00,22.2,22.1,00.0,30.4,23.9,16.5,0000.7,0009.80,0012.88,0009.28
2023-04-23 01:19:00,,0831.8,5.00,0.00,22.2,21.7,00.0,30.5,23.8,16.4,0000.7,0009.90,0013.15,0009.33
2023-04-23 01:20:00,,0831.8,5.00,0.00,22.2,21.4,00.0,30.5,23.8,16.5,0000.5,0009.98,0013.49,0009.37
2023-04-23 01:21:00,,0831.7,5.00,0.00,22.2,21.1,00.0,30.5,23.7,16.6,0000.5,0010.08,0013.02,0009.43
2023-04-23 01:22:00,,0832.1,5.00,0.00,22.1,20.9,00.0,30.5,23.7,16.7,0000.6,0010.16,0013.22,0009.48
2023-04-23 01:23:00,,0832.3,5.01,0.00,22.1,20.8,00.0,30.5,23.6,16.6,0000.6,0010.20,0013.26,0009.52
2023-04-23 01:24:00,,0832.2,5.01,0.00,22.1,20.7,00.0,30.5,23.6,16.7,0000.8,0010.26,0013.94,0009.56
2023-04-23 01:25:00,,0832.3,5.00,0.00,22.0,20.6,00.0,30.5,23.6,16.8,0000.4,0010.30,0014.46,0009.61
2023-04-23 01:26:00,,0832.3,5.00,0.00,22.0,20.5,00.0,30.5,23.5,17.0,0000.2,0010.37,0014.65,0009.68
2023-04-23 01:27:00,,0832.1,5.00,0.00,22.0,20.5,00.0,30.5,23.5,17.2,0000.2,0010.40,0014.64,0009.72
2023-04-23 01:28:00,,0832.2,5.00,0.00,22.0,20.5,00.0,30.5,23.5,17.3,0000.1,0010.44,0014.68,0009.77
2023-04-23 01:29:00,,0832.2,5.00,0.00,22.0,20.4,00.0,30.5,23.5,17.4,0000.1,0010.49,0014.75,0009.81
2023-04-23 01:30:00,,0832.3,4.99,0.00,22.0,20.4,00.0,30.5,23.5,17.3,0000.1,0010.52,0014.77,0009.84
2023-04-23 01:31:00,,0832.1,5.00,0.00,21.9,20.3,00.0,30.4,23.4,17.2,0000.3,0010.55,0014.53,0009.89
2023-04-23 01:32:00,,0831.7,5.00,0.00,21.9,20.2,00.0,30.4,23.4,17.2,0000.5,0010.56,0014.50,0009.92
2023-04-23 01:33:00,,0831.7,5.00,0.00,21.9,20.2,00.0,30.4,23.3,17.2,0000.4,0010.60,0014.56,0009.94
2023-04-23 01:34:00,,0831.7,5.00,0.00,21.9,20.1,00.0,30.4,23.3,17.2,0000.2,0010.69,0014.78,0009.99
2023-04-23 01:35:00,,0832.0,4.99,0.00,21.8,20.1,00.0,30.4,23.3,17.3,0000.0,0010.77,0014.41,0010.05
2023-04-23 01:36:00,,0831.8,5.00,0.00,21.8,20.1,00.0,30.4,23.3,17.3,0000.0,0010.82,0014.02,0010.07
2023-04-23 01:37:00,,0832.1,5.01,0.00,21.8,20.3,00.0,30.3,23.3,17.4,0000.2,0010.85,0014.00,0010.09
2023-04-23 01:38:00,,0832.1,5.01,0.00,21.9,21.4,00.0,30.3,23.8,17.3,0000.4,0010.98,0014.24,0010.12
2023-04-23 01:39:00,,0831.8,4.98,0.00,22.1,22.4,00.0,30.3,24.1,17.2,0000.2,0011.05,0014.40,0010.17
2023-04-23 01:40:00,,0831.8,5.00,0.00,22.1,22.4,00.0,30.4,24.0,17.0,0000.2,0011.07,0014.51,0010.20
2023-04-23 01:41:00,,0831.8,5.00,0.00,22.1,22.0,00.0,30.4,23.9,17.0,-000.1,0011.12,0014.98,0010.24
2023-04-23 01:42:00,,0831.8,5.00,0.00,22.1,21.7,00.0,30.4,23.8,17.0,-000.2,0011.17,0015.10,0010.26
2023-04-23 01:43:00,,0831.8,5.00,0.00,22.1,21.3,00.0,30.5,23.7,17.0,-000.3,0011.25,0015.25,0010.29
2023-04-23 01:44:00,,0831.7,5.00,0.00,22.1,21.1,00.0,30.5,23.6,17.1,-000.3,0011.25,0015.25,0010.28
2023-04-23 01:45:00,,0831.8,5.00,0.00,22.1,20.9,00.0,30.5,23.6,17.1,-000.3,0011.29,0015.44,0010.28
2023-04-23 01:46:00,,0831.8,5.01,0.00,22.0,20.8,00.0,30.5,23.5,17.1,-000.1,0011.30,0015.62,0010.26
2023-04-23 01:47:00,,0831.8,5.00,0.00,22.0,20.7,00.0,30.5,23.5,17.3,0000.1,0011.38,0015.97,0010.28
2023-04-23 01:48:00,,0831.8,5.00,0.00,22.0,20.6,00.0,30.5,23.5,17.2,0000.1,0011.46,0016.45,0010.30
2023-04-23 01:49:00,,0832.1,5.00,0.00,22.0,20.5,00.0,30.5,23.5,17.1,-000.3,0011.50,0017.05,0010.30
2023-04-23 01:50:00,,0831.8,5.00,0.00,21.9,20.4,00.0,30.4,23.4,17.3,-000.4,0011.55,0017.19,0010.30
2023-04-23 01:51:00,,0832.1,5.00,0.00,21.9,20.3,00.0,30.4,23.4,17.2,-000.7,0011.64,0017.41,0010.29
2023-04-23 01:52:00,,0832.3,5.00,0.00,21.9,20.2,00.0,30.4,23.3,17.3,-000.7,0011.71,0017.31,0010.28
2023-04-23 01:53:00,,0832.0,5.00,0.00,21.8,20.1,00.0,30.4,23.3,17.4,-000.5,0011.76,0017.60,0010.27
2023-04-23 01:54:00,,0832.0,5.00,0.00,21.8,20.1,00.0,30.4,23.3,17.4,-000.9,0011.76,0017.91,0010.26
2023-04-23 01:55:00,,0832.3,5.00,0.00,21.8,20.1,00.0,30.4,23.3,17.3,-001.0,0011.80,0018.35,0010.27
2023-04-23 01:56:00,,0832.2,5.00,0.00,21.8,20.1,00.0,30.4,23.2,17.4,-001.0,0011.82,0018.65,0010.28
2023-04-23 01:57:00,,0832.1,5.00,0.00,21.8,20.1,00.0,30.3,23.2,17.4,-001.2,0011.83,0018.53,0010.28
2023-04-23 01:58:00,,0831.8,5.02,0.00,21.8,21.1,00.0,30.3,23.6,17.5,-001.2,0011.86,0018.58,0010.26
2023-04-23 01:59:00,,0831.9,5.00,0.00,22.0,22.3,00.0,30.3,24.1,17.4,-001.0,0011.87,0018.38,0010.27
